Location: Les Coudrans
(46.1056°N, 1.1158°W)
Time: 15:24:19
(UTC+00:00)

Meteor 1-13 Rocket - Pass Details

Date: 03 March 2021
Orbit: 830 x 913 km, 81.3° (Epoch: 17 April)

Event Time Altitude Azimuth Distance (km) Brightness Sun altitude
Rises 19:35:33 0° 350° (N) 3,558 7.7 -18.4°
Reaches altitude 10° 19:38:04 10° 353° (N) 2,609 6.9 -18.8°
Maximum altitude 19:44:01 70° 77° (ENE) 962 4.2 -19.8°
Enters shadow 19:48:34 17° 159° (SSE) 2,087 5.9 -20.6°
